040  
ASUS41 KCLE 201012  
RWRCLE  
OHIO REGIONAL WEATHER ROUNDUP  
NATIONAL WEATHER SERVICE WILMINGTON, OH  
600 AM EDT FRI APR 20 2018  
 
NOTE: "FAIR" INDICATES FEW OR NO CLOUDS BELOW 12,000 FEET WITH NO  
SIGNIFICANT WEATHER AND/OR S TO VISIBILITY
.  
 
OHZ001>008-015>018-024>027-034-035-043-044-201100-  
NORTHWEST OHIO  
 
CITY SKY/WX TMP DP RH WIND PRES REMARKS
 
DEFIANCE FAIR 31 23 72 NW6 30.43R WCI 25  
FINDLAY FAIR 32 25 75 W5 30.39R WCI 27  
TOLEDO EXPRESS FAIR 31 23 72 CALM 30.40R  
TOLEDO EXEC FAIR 30 21 69 NW6 30.40R WCI 24  
LIMA FAIR 32 27 81 NW6 30.40R WCI 26  

 
 
OHZ009>014-019>023-028>033-038-089-201100-  
NORTHEAST OHIO  
 
CITY SKY/WX TMP DP RH WIND PRES REMARKS
 
CLE-HOPKINS FAIR 31 26 82 W6 30.38S WCI 25  
CLE-LAKEFRONT FAIR 38 27 64 N16 30.35R  
CUY CO. ARPT NOT AVBL  
LORAIN-ELYRIA FAIR 30 24 78 NW8 30.37R WCI 22  
ASHTABULA FAIR 33 27 78 NW5 30.33R WCI 29  
AKRON-CANTON FAIR 28 21 75 NW7 30.33S WCI 21  
WOOSTER FAIR 27 23 85 NW6 30.35R WCI 20  
MANSFIELD FAIR 30 26 85 W5 30.36R WCI 25  
YOUNGSTOWN FAIR 28 21 75 W6 30.32R WCI 22  

 
 
OHZ042-051>053-060>062-070>072-077>081-201100-  
SOUTHWEST OHIO  
 
CITY SKY/WX TMP DP RH WIND PRES REMARKS
 
CINC-COVINGTON FAIR 36 28 73 N9 30.40R  
CINC-LUNKEN FAIR 35 29 78 NE3 30.43R  
HAMILTON FAIR 31 27 85 W3 30.43R  
DAYTON FAIR 31 28 89 NW5 30.41R WCI 26  
WRIGHT-PAT AFB FAIR 32 28 84 CALM 30.40R  
DAYTON GENERAL FAIR 35 28 75 W5 30.40R  
WILMINGTON N/A 35 30 82 N5 30.39R  

 
 
OHZ036-037-039>041-045>050-054>059-063>069-073>076-082>088-201100-  
CENTRAL AND SOUTHEAST OHIO  
 
CITY SKY/WX TMP DP RH WIND PRES REMARKS
 
COLUMBUS FAIR 31 25 78 N3 30.38R  
OSU AIRPORT FAIR 31 27 85 NW5 30.38R WCI 26  
BOLTON FIELD FAIR 28 26 92 NW3 30.39R  
RICKENBACK AFB FAIR 32 26 77 CALM 30.39R  
NEWARK FAIR 29 25 85 CALM 30.37R  
MARION FAIR 29 25 85 W3 30.39R  
LANCASTER FAIR 29 26 89 CALM 30.39R  
ZANESVILLE NOT AVBL  
NEW PHILLY FAIR 27 23 85 E3 30.36R  

 
 
 
CLICK HERE TO GO TO PREVIOUS BULLETINS.

The Nexlab OH Page
The Nexlab PA Page Main Text Page